Weather History for Bellefontaine, OH

Change the Weather History Date:

Sunday, January 27, 2013

  Actual Average (KDAY) Record (KDAY)
Temperature  
Mean Temperature 23 °F 28 °F  
Max Temperature 32 °F 35 °F 66 °F (1916)
Min Temperature 14 °F 20 °F -9 °F (1936)
Degree Days  
Heating Degree Days 42 37  
Month to date heating degree days 1016  
Since 1 July heating degree days 3175  
Cooling Degree Days 0 0  
Month to date cooling degree days 0  
Year to date cooling degree days 0  
Moisture  
Dew Point 19 °F    
Average Humidity 77    
Maximum Humidity 100    
Minimum Humidity 64    
Precipitation  
Precipitation 0.11 in 0.08 in 0.95 in (1994)
Month to date precipitation 2.39  
Year to date precipitation 2.39  
Snow  
Snow 0.00 in 0.30 in 3.40 in (1979)
Month to date snowfall 6.9  
Since 1 July snowfall 12.4  
Snow Depth -    
Sea Level Pressure  
Sea Level Pressure 30.32 in    
Wind  
Wind Speed 7 mph (SE)    
Max Wind Speed 17 mph    
Max Gust Speed 18 mph    
Visibility 9 miles    
Events      
T = Trace of Precipitation, MM = Missing Value Source: NWS Daily Summary

Daily Weather History Graph

Daily Weather History Graph

Search for Another Location

Airport:

Trip Planner

Search our weather history database for the weather conditions in past years. The results will help you decide how hot, cold, wet, or windy it might be!

Date:

Astronomy

Jan. 27, 2013 Rise Set
Actual Time 7:48 AM EST 5:47 PM EST
Civil Twilight 7:19 AM EST 6:17 PM EST
Nautical Twilight 6:46 AM EST 6:49 PM EST
Astronomical Twilight 6:14 AM EST 7:22 PM EST
Moon 6:41 PM EST (1/27) 7:40 AM EST (1/27)
Length of Visible Light 10h 57m
Length of Day
9h 59m
Full, 100% of the Moon is Illuminated
Jan 27
Full
Feb 3
Last Quarter
Feb 10
New
Feb 17
First Quarter
Feb 25
Full

Hourly Weather History & Observations

Time (EST) Temp. Windchill Dew Point Humidity Pressure Visibility Wind Dir Wind Speed Gust Speed Precip Events Conditions
12:15 AM 17.6 °F 12.3 °F 14.0 °F 86% 30.41 in 10.0 mi SE 3.5 mph - 0.00 in   Clear
12:35 AM 15.8 °F 8.6 °F 14.0 °F 93% 30.40 in 10.0 mi ESE 4.6 mph - 0.00 in   Clear
12:55 AM 17.6 °F 9.3 °F 14.0 °F 86% 30.39 in 10.0 mi SE 5.8 mph - 0.00 in   Clear
1:15 AM 17.6 °F 10.7 °F 14.0 °F 86% 30.39 in 10.0 mi ESE 4.6 mph - 0.00 in   Clear
1:35 AM 19.4 °F 11.5 °F 14.0 °F 80% 30.39 in 10.0 mi ESE 5.8 mph - 0.00 in   Clear
1:55 AM 17.6 °F 12.3 °F 12.2 °F 79% 30.40 in 10.0 mi SE 3.5 mph - 0.00 in   Clear
2:15 AM 14.0 °F 8.2 °F 10.4 °F 86% 30.40 in 10.0 mi SE 3.5 mph - 0.00 in   Clear
2:35 AM 15.8 °F 8.6 °F 12.2 °F 86% 30.39 in 10.0 mi ESE 4.6 mph - 0.00 in   Clear
2:55 AM 19.4 °F 11.5 °F 12.2 °F 74% 30.40 in 10.0 mi East 5.8 mph - 0.00 in   Clear
3:15 AM 19.4 °F 11.5 °F 12.2 °F 74% 30.39 in 10.0 mi East 5.8 mph - 0.00 in   Clear
3:35 AM 19.4 °F 10.4 °F 12.2 °F 74% 30.38 in 10.0 mi SE 6.9 mph - 0.00 in   Clear
3:55 AM 17.6 °F 10.7 °F 10.4 °F 73% 30.40 in 10.0 mi SSE 4.6 mph - 0.00 in   Clear
4:15 AM 17.6 °F 8.2 °F 12.2 °F 79% 30.39 in 10.0 mi SE 6.9 mph - 0.00 in   Clear
4:35 AM 19.4 °F 11.5 °F 12.2 °F 74% 30.38 in 10.0 mi ESE 5.8 mph - 0.00 in   Clear
4:55 AM 15.8 °F 8.6 °F 10.4 °F 79% 30.39 in 10.0 mi SE 4.6 mph - 0.00 in   Partly Cloudy
5:15 AM 17.6 °F 10.7 °F 12.2 °F 79% 30.38 in 10.0 mi ESE 4.6 mph - 0.00 in   Mostly Cloudy
5:35 AM 17.6 °F 12.3 °F 12.2 °F 79% 30.38 in 10.0 mi SE 3.5 mph - 0.00 in   Partly Cloudy
5:55 AM 15.8 °F 10.2 °F 12.2 °F 86% 30.38 in 10.0 mi ESE 3.5 mph - 0.00 in   Scattered Clouds
6:15 AM 15.8 °F - 10.4 °F 79% 30.39 in 10.0 mi Calm Calm - 0.00 in   Partly Cloudy
6:35 AM 15.8 °F - 12.2 °F 86% 30.40 in 10.0 mi Calm Calm - 0.00 in   Partly Cloudy
6:55 AM 17.6 °F - 12.2 °F 79% 30.40 in 10.0 mi Calm Calm - 0.00 in   Clear
7:15 AM 17.6 °F 7.3 °F 12.2 °F 79% 30.38 in 10.0 mi SE 8.1 mph - 0.00 in   Clear
7:35 AM 15.8 °F 5.1 °F 10.4 °F 79% 30.39 in 10.0 mi SSE 8.1 mph - 0.00 in   Clear
7:55 AM 15.8 °F 6.1 °F 10.4 °F 79% 30.39 in 10.0 mi SSE 6.9 mph - 0.00 in   Clear
8:15 AM 17.6 °F 9.3 °F 12.2 °F 79% 30.41 in 10.0 mi SE 5.8 mph - 0.00 in   Clear
8:35 AM 19.4 °F 9.5 °F 12.2 °F 74% 30.40 in 10.0 mi SE 8.1 mph - 0.00 in   Clear
8:55 AM 19.4 °F 7.9 °F 12.2 °F 74% 30.40 in 10.0 mi SE 10.4 mph - 0.00 in   Clear
9:15 AM 19.4 °F 9.5 °F 14.0 °F 80% 30.41 in 10.0 mi SE 8.1 mph - 0.00 in   Clear
9:35 AM 21.2 °F 8.9 °F 14.0 °F 74% 30.41 in 10.0 mi SE 12.7 mph - 0.00 in   Clear
9:55 AM 23.0 °F 11.7 °F 15.8 °F 74% 30.41 in 10.0 mi SE 11.5 mph - 0.00 in   Clear
10:15 AM 23.0 °F 10.1 °F 15.8 °F 74% 30.40 in 10.0 mi SE 15.0 mph - 0.00 in   Clear
10:35 AM 23.0 °F 10.1 °F 15.8 °F 74% 30.40 in 10.0 mi SE 15.0 mph - 0.00 in   Clear
10:55 AM 23.0 °F 10.6 °F 17.6 °F 80% 30.40 in 10.0 mi SE 13.8 mph - 0.00 in   Clear
11:15 AM 26.6 °F 15.2 °F 17.6 °F 69% 30.39 in 10.0 mi SSE 13.8 mph - 0.00 in   Clear
11:35 AM 26.6 °F 13.8 °F 17.6 °F 69% 30.37 in 10.0 mi SE 17.3 mph - 0.00 in   Clear
11:55 AM 26.6 °F 14.7 °F 19.4 °F 74% 30.37 in 10.0 mi SE 15.0 mph - 0.00 in   Clear
12:15 PM 28.4 °F 17.5 °F 19.4 °F 69% 30.37 in 10.0 mi SE 13.8 mph - 0.00 in   Clear
12:35 PM 28.4 °F 18.5 °F 19.4 °F 69% 30.36 in 10.0 mi SE 11.5 mph - 0.00 in   Clear
12:55 PM 28.4 °F 20.4 °F 19.4 °F 69% 30.36 in 10.0 mi SE 8.1 mph - 0.00 in   Clear
1:15 PM 30.2 °F 21.9 °F 19.4 °F 64% 30.34 in 10.0 mi SE 9.2 mph - 0.00 in   Clear
1:35 PM 30.2 °F 20.2 °F 21.2 °F 69% 30.33 in 10.0 mi SE 12.7 mph - 0.00 in   Clear
1:55 PM 30.2 °F 20.2 °F 21.2 °F 69% 30.32 in 10.0 mi SE 12.7 mph - 0.00 in   Clear
2:15 PM 30.2 °F 21.3 °F 21.2 °F 69% 30.31 in 10.0 mi SE 10.4 mph - 0.00 in   Clear
2:35 PM 30.2 °F 20.2 °F 21.2 °F 69% 30.30 in 10.0 mi SE 12.7 mph - 0.00 in   Clear
2:55 PM 32.0 °F 22.5 °F 21.2 °F 64% 30.29 in 10.0 mi SE 12.7 mph - 0.00 in   Clear
3:15 PM 32.0 °F 23.0 °F 21.2 °F 64% 30.28 in 10.0 mi SE 11.5 mph - 0.00 in   Clear
3:35 PM 32.0 °F 22.5 °F 21.2 °F 64% 30.26 in 10.0 mi SE 12.7 mph - 0.00 in   Clear
3:55 PM 32.0 °F 22.1 °F 21.2 °F 64% 30.27 in 10.0 mi SSE 13.8 mph - 0.00 in   Clear
4:15 PM 30.2 °F 19.3 °F 21.2 °F 69% 30.26 in 10.0 mi SSE 15.0 mph - 0.00 in   Clear
4:35 PM 30.2 °F 20.2 °F 23.0 °F 75% 30.27 in 10.0 mi SE 12.7 mph - 0.00 in   Clear
4:55 PM 30.2 °F 20.2 °F 23.0 °F 75% 30.24 in 10.0 mi SE 12.7 mph 17.3 mph 0.00 in   Clear
5:15 PM 30.2 °F 20.8 °F 23.0 °F 75% 30.24 in 10.0 mi SE 11.5 mph 17.3 mph 0.00 in   Partly Cloudy
5:35 PM 30.2 °F 20.2 °F 23.0 °F 75% 30.25 in 10.0 mi SE 12.7 mph - 0.00 in   Partly Cloudy
5:55 PM 32.0 °F 22.1 °F 23.0 °F 69% 30.24 in 10.0 mi SE 13.8 mph - 0.00 in   Partly Cloudy
6:15 PM 32.0 °F 22.1 °F 23.0 °F 69% 30.23 in 10.0 mi SE 13.8 mph 17.3 mph 0.00 in   Partly Cloudy
6:35 PM 32.0 °F 21.2 °F 23.0 °F 69% 30.23 in 10.0 mi SE 16.1 mph - 0.00 in   Clear
6:55 PM 32.0 °F 21.6 °F 23.0 °F 69% 30.22 in 10.0 mi SE 15.0 mph - 0.00 in   Clear
7:15 PM 32.0 °F 21.6 °F 23.0 °F 69% 30.22 in 10.0 mi SE 15.0 mph - 0.00 in   Clear
7:35 PM 32.0 °F 22.5 °F 23.0 °F 69% 30.21 in 10.0 mi SE 12.7 mph - 0.00 in   Partly Cloudy
7:55 PM 32.0 °F 24.8 °F 23.0 °F 69% 30.26 in 10.0 mi SSE 8.1 mph - 0.00 in   Mostly Cloudy
8:15 PM 32.0 °F 24.2 °F 24.8 °F 75% 30.25 in 10.0 mi SE 9.2 mph - 0.00 in   Mostly Cloudy
8:35 PM 32.0 °F 26.4 °F 24.8 °F 75% 30.25 in 7.0 mi SE 5.8 mph - 0.00 in   Overcast
8:55 PM 32.0 °F 24.8 °F 26.6 °F 80% 30.25 in 6.0 mi SE 8.1 mph - 0.00 in   Overcast
9:15 PM 32.0 °F 24.2 °F 28.4 °F 87% 30.24 in 6.0 mi SE 9.2 mph - 0.01 in   Overcast
9:35 PM 32.0 °F 23.0 °F 28.4 °F 87% 30.21 in 5.0 mi SE 11.5 mph 18.4 mph 0.02 in   Overcast
9:55 PM 32.0 °F 25.6 °F 30.2 °F 93% 30.19 in 4.0 mi SE 6.9 mph 17.3 mph 0.04 in   Overcast
10:15 PM 32.0 °F - 30.2 °F 93% 30.18 in 3.0 mi Calm Calm - 0.02 in   Overcast
10:35 PM 32.0 °F - 32.0 °F 100% 30.17 in 4.0 mi Calm Calm - 0.04 in   Overcast
10:55 PM 32.0 °F - 32.0 °F 100% 30.16 in 3.0 mi Calm Calm - 0.06 in   Overcast
11:15 PM 32.0 °F - 32.0 °F 100% 30.14 in 5.0 mi Calm Calm - 0.00 in   Overcast
11:35 PM 32.0 °F - 32.0 °F 100% 30.13 in 6.0 mi Calm Calm - 0.00 in   Overcast
11:55 PM 32.0 °F - 32.0 °F 100% 30.11 in 5.0 mi Calm Calm - 0.01 in   Overcast